^^
Garrymore Weather Station Historical Data
 
Daily Summary for February 18, 2020 Units:  Metric    English   Both
Daily Weekly Monthly Yearly Custom
  Current: High: Low: Average:
Temperature: 3 °C 5 °C 2 °C 3.3 °C
Dew Point: 1 °C 2 °C -2 °C 0.2 °C
Humidity: 85% 87% 75% 80%
Wind Speed: 13km/h 26km/h 3km/h 12.9km/h
Wind Gust: 24km/h 40km/h - -
WindNW - - SSW
Pressure: 1016.53 hPa 1017.88 hPa 1015.82 hPa -
Precipitation: 4.5 mm      
Historical Graphs
 
 
Tabular Data for February 18, 2020
Time Temperature Dew Point Pressure Wind Wind Speed Wind Gust Humidity Rainfall Rate (Hourly) solar
00:00 3 °C 0 °C 1017.41 hPa W 14 km/h 24 km/h 79% 0 mm 0 W/m2
00:05 3 °C 0 °C 1017.31 hPa SW 11 km/h 24 km/h 79% 0 mm 0 W/m2
00:10 3 °C 0 °C 1017.2 hPa SW 14 km/h 24 km/h 78% 0 mm 0 W/m2
00:15 3 °C 0 °C 1017.51 hPa WSW 13 km/h 23 km/h 78% 0 mm 0 W/m2
00:20 3 °C 0 °C 1017.58 hPa SW 13 km/h 27 km/h 78% 0 mm 0 W/m2
00:25 3 °C 0 °C 1017.68 hPa SW 13 km/h 26 km/h 77% 0 mm 0 W/m2
00:30 3 °C 0 °C 1017.51 hPa SW 10 km/h 24 km/h 77% 0 mm 0 W/m2
00:35 3 °C 0 °C 1017.61 hPa SW 11 km/h 23 km/h 77% 0 mm 0 W/m2
00:40 3 °C -1 °C 1017.51 hPa SW 13 km/h 23 km/h 77% 0 mm 0 W/m2
00:45 3 °C -1 °C 1017.58 hPa SSW 13 km/h 23 km/h 77% 0 mm 0 W/m2
00:50 3 °C -1 °C 1017.41 hPa SSW 10 km/h 19 km/h 77% 0 mm 0 W/m2
00:55 3 °C -1 °C 1017.51 hPa S 11 km/h 21 km/h 78% 0 mm 0 W/m2
01:00 3 °C -1 °C 1017.51 hPa S 11 km/h 18 km/h 78% 0 mm 0 W/m2
01:05 3 °C -1 °C 1017.61 hPa S 13 km/h 16 km/h 78% 0 mm 0 W/m2
01:10 2 °C -1 °C 1017.81 hPa S 10 km/h 16 km/h 80% 0 mm 0 W/m2
01:15 2 °C -1 °C 1017.88 hPa S 8 km/h 13 km/h 81% 0 mm 0 W/m2
01:20 2 °C -1 °C 1017.78 hPa S 10 km/h 18 km/h 81% 0 mm 0 W/m2
01:25 2 °C -1 °C 1017.68 hPa S 13 km/h 16 km/h 82% 0 mm 0 W/m2
01:30 2 °C -2 °C 1017.41 hPa S 10 km/h 19 km/h 78% 0 mm 0 W/m2
01:35 2 °C -1 °C 1017.41 hPa S 11 km/h 19 km/h 79% 0 mm 0 W/m2
01:40 2 °C -1 °C 1017.41 hPa SSW 13 km/h 19 km/h 79% 0 mm 0 W/m2
01:45 2 °C -1 °C 1017.31 hPa SSW 11 km/h 18 km/h 79% 0 mm 0 W/m2
01:50 2 °C -1 °C 1017.31 hPa S 11 km/h 18 km/h 80% 0 mm 0 W/m2
01:55 2 °C -1 °C 1017.2 hPa S 14 km/h 19 km/h 80% 0 mm 0 W/m2
02:00 2 °C -1 °C 1017.31 hPa S 13 km/h 24 km/h 80% 0 mm 0 W/m2
02:05 2 °C -1 °C 1017.2 hPa S 11 km/h 21 km/h 81% 0 mm 0 W/m2
02:10 2 °C -1 °C 1017.14 hPa S 11 km/h 21 km/h 81% 0 mm 0 W/m2
02:15 2 °C -1 °C 1017.2 hPa S 10 km/h 21 km/h 81% 0 mm 0 W/m2
02:20 2 °C -1 °C 1017.2 hPa S 10 km/h 18 km/h 81% 0 mm 0 W/m2
02:25 2 °C -1 °C 1017.2 hPa SSW 11 km/h 21 km/h 82% 0 mm 0 W/m2
02:30 2 °C 0 °C 1017.31 hPa SSW 11 km/h 21 km/h 86% 0 mm 0 W/m2
02:35 2 °C 0 °C 1017.31 hPa S 11 km/h 18 km/h 86% 0 mm 0 W/m2
02:40 2 °C 0 °C 1017.31 hPa S 10 km/h 32 km/h 86% 0 mm 0 W/m2
02:45 3 °C 1 °C 1017.2 hPa SSW 16 km/h 32 km/h 87% 0 mm 0 W/m2
02:50 3 °C 1 °C 1017.1 hPa SW 14 km/h 27 km/h 87% 0 mm 0 W/m2
02:55 4 °C 2 °C 1017 hPa SW 14 km/h 37 km/h 86% 0 mm 0 W/m2
03:00 4 °C 1 °C 1017.17 hPa SW 24 km/h 35 km/h 83% 0 mm 0 W/m2
03:05 4 °C 1 °C 1016.9 hPa SW 21 km/h 35 km/h 83% 0 mm 0 W/m2
03:10 4 °C 1 °C 1017.07 hPa SW 14 km/h 27 km/h 80% 0 mm 0 W/m2
03:15 4 °C 1 °C 1016.8 hPa SW 13 km/h 24 km/h 78% 0 mm 0 W/m2
03:20 4 °C 1 °C 1017.1 hPa SW 10 km/h 24 km/h 77% 0 mm 0 W/m2
03:25 4 °C 1 °C 1017.03 hPa SSW 10 km/h 19 km/h 77% 0 mm 0 W/m2
03:30 4 °C 0 °C 1017 hPa SW 10 km/h 24 km/h 77% 0 mm 0 W/m2
03:35 4 °C 1 °C 1016.9 hPa SSW 10 km/h 19 km/h 79% 0 mm 0 W/m2
03:40 4 °C 1 °C 1016.8 hPa S 14 km/h 21 km/h 81% 0 mm 0 W/m2
03:45 3 °C 0 °C 1016.7 hPa S 10 km/h 19 km/h 81% 0 mm 0 W/m2
03:50 3 °C 0 °C 1016.8 hPa S 13 km/h 19 km/h 81% 0 mm 0 W/m2
03:55 3 °C 0 °C 1016.59 hPa S 11 km/h 24 km/h 83% 0 mm 0 W/m2
04:00 3 °C 0 °C 1016.49 hPa SSW 10 km/h 26 km/h 83% 0 mm 0 W/m2
04:05 3 °C 0 °C 1016.49 hPa SSW 13 km/h 26 km/h 84% 0 mm 0 W/m2
04:10 3 °C 0 °C 1016.59 hPa SSW 14 km/h 24 km/h 84% 0 mm 0 W/m2
04:15 3 °C 1 °C 1016.49 hPa SSW 14 km/h 24 km/h 84% 0 mm 0 W/m2
04:20 4 °C 1 °C 1016.42 hPa SSW 16 km/h 34 km/h 85% 0 mm 0 W/m2
04:25 4 °C 2 °C 1016.59 hPa SSW 23 km/h 34 km/h 84% 0 mm 0 W/m2
04:30 4 °C 2 °C 1016.39 hPa SW 14 km/h 32 km/h 83% 0 mm 0 W/m2
04:35 5 °C 2 °C 1016.32 hPa WSW 19 km/h 32 km/h 81% 0 mm 0 W/m2
04:40 5 °C 2 °C 1016.29 hPa SW 16 km/h 34 km/h 80% 0 mm 0 W/m2
04:45 5 °C 2 °C 1016.19 hPa SW 16 km/h 32 km/h 79% 0 mm 0 W/m2
04:50 5 °C 1 °C 1016.12 hPa SW 19 km/h 32 km/h 77% 0 mm 0 W/m2
04:55 5 °C 1 °C 1016.02 hPa SW 19 km/h 34 km/h 76% 0 mm 0 W/m2
05:00 5 °C 1 °C 1015.98 hPa SSW 19 km/h 40 km/h 76% 0 mm 0 W/m2
05:05 5 °C 1 °C 1015.98 hPa SSW 21 km/h 26 km/h 76% 0 mm 0 W/m2
05:10 5 °C 1 °C 1015.82 hPa SW 21 km/h 32 km/h 75% 0 mm 0 W/m2
05:15 5 °C 1 °C 1015.98 hPa SW 16 km/h 34 km/h 75% 0 mm 0 W/m2
05:20 5 °C 1 °C 1016.12 hPa SSW 26 km/h 37 km/h 75% 0 mm 0 W/m2
05:25 5 °C 1 °C 1016.12 hPa SSW 19 km/h 37 km/h 75% 0 mm 0 W/m2
05:30 5 °C 1 °C 1016.29 hPa SW 19 km/h 32 km/h 75% 0.3 mm 0 W/m2
05:35 5 °C 1 °C 1016.49 hPa W 14 km/h 32 km/h 76% 0 mm 0 W/m2
05:40 5 °C 1 °C 1017 hPa SW 19 km/h 34 km/h 79% 0.89 mm 0 W/m2
05:45 4 °C 0 °C 1016.9 hPa W 13 km/h 34 km/h 77% 3 mm 0 W/m2
05:50 4 °C 0 °C 1016.59 hPa NW 5 km/h 26 km/h 78% 0 mm 0 W/m2
05:55 3 °C 0 °C 1016.59 hPa W 10 km/h 23 km/h 78% 0 mm 0 W/m2
06:00 3 °C 0 °C 1016.39 hPa W 11 km/h 23 km/h 80% 0 mm 0 W/m2
06:05 3 °C 0 °C 1016.39 hPa WSW 13 km/h 23 km/h 81% 0 mm 0 W/m2
06:10 3 °C 1 °C 1016.29 hPa SSW 11 km/h 23 km/h 82% 0 mm 0 W/m2
06:15 3 °C 1 °C 1016.19 hPa SW 10 km/h 18 km/h 83% 0 mm 0 W/m2
06:20 3 °C 1 °C 1016.19 hPa SSW 8 km/h 14 km/h 83% 0 mm 0 W/m2
06:25 3 °C 0 °C 1016.29 hPa S 5 km/h 11 km/h 83% 0 mm 0 W/m2
06:30 3 °C 0 °C 1016.19 hPa S 8 km/h 13 km/h 84% 0 mm 0 W/m2
06:35 3 °C 0 °C 1016.09 hPa S 5 km/h 13 km/h 84% 0 mm 0 W/m2
06:40 3 °C 1 °C 1016.29 hPa S 8 km/h 13 km/h 84% 0 mm 0 W/m2
06:45 3 °C 1 °C 1016.19 hPa SSW 3 km/h 13 km/h 84% 0.3 mm 0 W/m2
06:50 3 °C 1 °C 1016.53 hPa NW 13 km/h 24 km/h 85% 0 mm 0 W/m2
Garrymore Weather Station, Geashill, Tullamore, Offaly, Ireland
Compliments of Weather Underground - 2 mb